Holland, MI

3:44 PM EDT on July 20, 2017 (GMT -0400)
Tulip City

Weather History for KBIV - September, 2013

Change the Weather History Date:

Thursday, September 19, 2013

  Actual Average Record
Temperature  
Mean Temperature 71 °F 62 °F  
Max Temperature 78 °F 72 °F 85 °F (1957)
Min Temperature 63 °F 52 °F 35 °F (1979)
Degree Days  
Heating Degree Days 0 5  
Month to date heating degree days 54 46  
Since 1 July heating degree days 73 61  
Cooling Degree Days 6 2  
Month to date cooling degree days 81 52  
Year to date cooling degree days 788 670  
Growing Degree Days 20 (Base 50)    
Moisture  
Dew Point 65 °F    
Average Humidity 81    
Maximum Humidity 93    
Minimum Humidity 69    
Precipitation  
Precipitation 0.71 in 0.14 in 0.90 in (2001)
Month to date precipitation 0.88 2.16  
Year to date precipitation 28.89 25.37  
Sea Level Pressure  
Sea Level Pressure 29.94 in    
Wind  
Wind Speed 8 mph (SSE)    
Max Wind Speed 25 mph    
Max Gust Speed 31 mph    
Visibility 9 miles    
Events Rain , Thunderstorm    
T = Trace of Precipitation, MM = Missing Value Source: NWS Daily Summary

Daily Weather History Graph

Daily Weather History Graph

Search for Another Location

Airport or City:

Trip Planner

Search our weather history database for the weather conditions in past years. The results will help you decide how hot, cold, wet, or windy it might be!

Date:

Astronomy

Sep. 19, 2013 Rise Set
Actual Time 7:28 AM EDT 7:46 PM EDT
Civil Twilight 7:00 AM EDT 8:14 PM EDT
Nautical Twilight 6:27 AM EDT 8:48 PM EDT
Astronomical Twilight 5:53 AM EDT 9:21 PM EDT
Moon 7:42 PM EDT (9/19) 7:38 AM EDT (9/19)
Length of Visible Light 13h 14m
Length of Day
12h 17m
Full, 100% of the Moon is Illuminated
Sep 19
Full
Sep 26
Last Quarter
Oct 4
New
Oct 11
First Quarter
Oct 18
Full

Hourly Weather History & Observations

Time (EDT) Temp. Dew Point Humidity Pressure Visibility Wind Dir Wind Speed Gust Speed Precip Events Conditions
12:53 AM 64.0 °F 57.0 °F 78% 29.99 in 10.0 mi South 4.6 mph - N/A   Clear
1:53 AM 64.0 °F 57.9 °F 80% 29.98 in 10.0 mi SSE 3.5 mph - N/A   Clear
2:53 AM 63.0 °F 57.9 °F 84% 29.98 in 10.0 mi SSE 4.6 mph - N/A   Partly Cloudy
3:53 AM 64.9 °F 59.0 °F 81% 29.97 in 10.0 mi South 5.8 mph - N/A   Mostly Cloudy
4:53 AM 66.0 °F 62.1 °F 87% 29.95 in 10.0 mi South 6.9 mph - N/A   Mostly Cloudy
5:25 AM 68.0 °F 62.6 °F 83% 29.97 in 10.0 mi South 9.2 mph - N/A Thunderstorm Overcast
5:53 AM 68.0 °F 64.0 °F 87% 29.97 in 10.0 mi SSW 9.2 mph - 0.00 in Rain , Thunderstorm Light Thunderstorms and Rain
6:15 AM 66.2 °F 64.4 °F 94% 29.96 in 1.8 mi South 19.6 mph 31.1 mph 0.35 in Rain , Thunderstorm Heavy Thunderstorms and Rain
6:22 AM 66.2 °F 64.4 °F 94% 29.97 in 3.0 mi South 18.4 mph - 0.37 in Rain , Thunderstorm Light Thunderstorms and Rain
6:53 AM 66.9 °F 64.9 °F 93% 29.98 in 6.0 mi SE 3.5 mph - 0.51 in Rain , Thunderstorm Light Thunderstorms and Rain
7:12 AM 66.2 °F 64.4 °F 94% 29.99 in 10.0 mi SSE 8.1 mph - 0.01 in Rain , Thunderstorm Light Thunderstorms and Rain
7:33 AM 66.2 °F 64.4 °F 94% 29.98 in 10.0 mi South 9.2 mph - 0.01 in   Overcast
7:40 AM 68.0 °F 64.4 °F 88% 29.99 in 10.0 mi South 6.9 mph - 0.01 in Thunderstorm Thunderstorm
7:53 AM 66.9 °F 64.9 °F 93% 29.97 in 5.0 mi SSE 8.1 mph - 0.05 in Rain , Thunderstorm Heavy Thunderstorms and Rain
8:53 AM 68.0 °F 66.0 °F 93% 29.98 in 10.0 mi Variable 5.8 mph - 0.06 in Rain Light Rain
9:15 AM 68.0 °F 66.2 °F 94% 29.99 in 10.0 mi ESE 5.8 mph - 0.00 in Thunderstorm Overcast
9:31 AM 68.0 °F 66.2 °F 94% 29.99 in 10.0 mi ESE 5.8 mph - 0.00 in   Overcast
9:42 AM 69.8 °F 66.2 °F 88% 29.99 in 10.0 mi ESE 4.6 mph - 0.00 in Thunderstorm Overcast
9:53 AM 69.1 °F 66.9 °F 93% 29.98 in 10.0 mi ESE 4.6 mph - 0.00 in   Overcast
10:53 AM 70.0 °F 66.9 °F 90% 30.00 in 10.0 mi South 6.9 mph - 0.02 in Rain Light Rain
11:53 AM 71.1 °F 66.9 °F 87% 30.00 in 10.0 mi SW 9.2 mph - 0.00 in   Scattered Clouds
12:53 PM 70.0 °F 68.0 °F 93% 29.97 in 6.0 mi SSW 9.2 mph - 0.06 in Rain Light Rain
1:05 PM 69.8 °F 66.2 °F 88% 29.98 in 8.0 mi SSW 11.5 mph - 0.01 in Rain Light Rain
1:53 PM 72.0 °F 68.0 °F 87% 29.95 in 10.0 mi SSW 11.5 mph - 0.01 in   Clear
2:53 PM 73.0 °F 66.9 °F 81% 29.93 in 10.0 mi SSW 10.4 mph - N/A   Scattered Clouds
3:53 PM 77.0 °F 66.9 °F 71% 29.89 in 10.0 mi SSW 11.5 mph 20.7 mph N/A   Clear
4:53 PM 77.0 °F 66.9 °F 71% 29.89 in 10.0 mi South 11.5 mph 20.7 mph N/A   Clear
5:53 PM 73.9 °F 66.0 °F 76% 29.86 in 10.0 mi SSE 9.2 mph - N/A   Clear
6:53 PM 73.9 °F 66.0 °F 76% 29.85 in 10.0 mi SSE 8.1 mph - N/A   Clear
7:53 PM 71.1 °F 66.0 °F 84% 29.85 in 10.0 mi SE 8.1 mph - N/A   Clear
8:53 PM 71.1 °F 64.9 °F 81% 29.86 in 10.0 mi SSE 8.1 mph - N/A   Clear
9:53 PM 71.1 °F 64.9 °F 81% 29.86 in 10.0 mi South 11.5 mph - N/A   Scattered Clouds
10:53 PM 72.0 °F 66.9 °F 84% 29.83 in 10.0 mi South 11.5 mph - N/A   Clear
11:53 PM 72.0 °F 66.9 °F 84% 29.83 in 10.0 mi SE 6.9 mph - N/A   Mostly Cloudy